Regional Weather Roundup
Issued by NWS

Home | Current Version | Previous Version | Graphics & Text | Print | Product List | Glossary On
Versions: 1 2 3 4 5 6 7 8 9 10 11 12 13 14 15 16 17 18 19 20 21 22 23 24 25 26 27 28 29 30 31 32 33 34 35 36 37 38 39 40 41 42 43 44 45 46 47 48 49 50
000
ASUS43 KLSX 261207
RWRMO

WEATHER SUMMARY FOR MISSOURI
NATIONAL WEATHER SERVICE SPRINGFIELD MO
700 AM CDT WED APR 26 2017

NOTE: "FAIR" INDICATES FEW OR NO CLOUDS BELOW 12,000 FEET WITH NO
       SIGNIFICANT WEATHER AND/OR OBSTRUCTIONS TO VISIBILITY.
       CURRENT SKY AND/OR WEATHER CONDITIONS ARE NOT AVAILABLE FOR
       CHILLICOTHE AND FARMINGTON.

MOZ001>031-035>038-043-044-053-054-261300-
...NORTHERN AND WESTERN MISSOURI...

CITY           SKY/WX    TMP DP  RH WIND       PRES   REMARKS
KANSAS CTY INT LGT RAIN  42  42 100 NW13G23   29.60R FOG
6HR MIN TEMP:  42; 6HR MAX TEMP:  49; 6HR PCP:  0.01;

KANSAS C DTWN  CLOUDY    45  43  93 NW13G20   29.60R
6HR MIN TEMP:  45; 6HR MAX TEMP:  51; 6HR PCP:  0.07;

LEE`S SUMMIT   CLOUDY    45  44  97 NW13      29.60R
6HR MIN TEMP:  45; 6HR MAX TEMP:  53; 6HR PCP:  0.13;

ST JOSEPH      LGT RAIN  42  40  92 NW16      29.62R
6HR MIN TEMP:  42; 6HR MAX TEMP:  48; 6HR PCP:  0.08;

CHILLICOTHE      N/A     46  44  93 NW8       29.55R
6HR MIN TEMP:  46; 6HR MAX TEMP:  56; 6HR PCP:  0.04;

KIRKSVILLE     CLOUDY    50  48  93 W8        29.49R
6HR MIN TEMP:  50; 6HR MAX TEMP:  62; 6HR PCP:  0.10;


$$
MOZ066>068-077>081-088>096-101>105-261300-
...SOUTHWEST MISSOURI...

CITY           SKY/WX    TMP DP  RH WIND       PRES   REMARKS
SPRINGFIELD    CLOUDY    59  57  93 SW5       29.52R
6HR MIN TEMP:  57; 6HR MAX TEMP:  69; 6HR PCP:  0.81;

JOPLIN         TSTM      52  51  97 N10       29.52F FOG
6HR MIN TEMP:  52; 6HR MAX TEMP:  61; 6HR PCP:  0.14;

BRANSON        LGT RAIN  57  57 100 S6        29.52R FOG

$$
MOZ032>034-039>042-045>050-055>058-069>072-261300-
...CENTRAL MISSOURI...

CITY           SKY/WX    TMP DP  RH WIND       PRES   REMARKS
COLUMBIA       CLOUDY    59  59 100 W13       29.49R
6HR MIN TEMP:  58; 6HR MAX TEMP:  66; 6HR PCP:  0.75;

JEFFERSON CITY CLOUDY    62  57  83 NW8       29.49R
6HR MIN TEMP:  62; 6HR MAX TEMP:  72; 6HR PCP:  0.64;

ROLLA          CLOUDY    57  56  96 S7        29.47R
6HR MIN TEMP:  57; 6HR MAX TEMP:  68; 6HR PCP:  0.34;

SEDALIA        CLOUDY    52  32  46 W12       29.56R
6HR MIN TEMP:  52; 6HR MAX TEMP:  64; 6HR PCP:  0.45;

WHITEMAN AFB   LGT RAIN  48  48 100 NW10      29.54R FOG
OSAGE BEACH    CLOUDY    58  57  97 SW8       29.53R

$$
MOZ051-052-059>065-261300-
...EAST CENTRAL MISSOURI...

CITY           SKY/WX    TMP DP  RH WIND       PRES   REMARKS
ST LOUIS INTL  CLOUDY    65  56  72 S12       29.45F
6HR MIN TEMP:  64; 6HR MAX TEMP:  72; 6HR PCP: TRACE;

SPIRIT OF STL  LGT RAIN  63  59  87 S3        29.44F
6HR MIN TEMP:  62; 6HR MAX TEMP:  70; 6HR PCP:  0.02;

ST CHARLES     CLOUDY    62  58  86 S6        29.46R
6HR MIN TEMP:  61; 6HR MAX TEMP:  71; 6HR PCP: TRACE;


$$
MOZ072>076-082>087-097>100-106>115-261300-
...SOUTH CENTRAL AND SOUTHEAST MISSOURI...

CITY           SKY/WX    TMP DP  RH WIND       PRES   REMARKS
CAPE GIRARDEAU CLOUDY    65  57  75 S12       29.60F
6HR MIN TEMP:  63; 6HR MAX TEMP:  69; 6HR PCP: TRACE;

FARMINGTON     CLOUDY    62  54  74 S8        29.54F
6HR MIN TEMP:  61; 6HR MAX TEMP:  69;

POPLAR BLUFF   PTCLDY    65  60  84 S5        29.57F
6HR MIN TEMP:  63; 6HR MAX TEMP:  69;

WEST PLAINS    MOCLDY    59  55  87 SE7       29.53F
6HR MIN TEMP:  58; 6HR MAX TEMP:  67; 6HR PCP:  0.06;


$$



USA.gov is the U.S. government's official web portal to all federal, state and local government web resources and services.